Voltar ao catálogo

COSMOS 1275 DEB

AtivoPO
NORAD 15541·DEBRIS·🇷🇺 Russia

Lançado Jun 4, 1981 de Plesetsk Cosmodrome

Loading…

Próximas Passagens (próximas 24 horas)

TLE

AtualizadoSource: Space-Track

Época: Sep 13, 2026, 12:27 UTC

1 15541U 81053JZ  26256.51912381  .00000253  00000-0  20186-3 0  9994
2 15541  82.8852 269.4099 0033742 108.1167  45.3291 13.86892776133977

Acompanhe COSMOS 1275 DEB em tempo real com AllMySat

Download on the App Store